Regional Weather Roundup
Issued by NWS

Home | Current Version | Previous Version | Text Only | Print | Product List | Glossary On
Versions: 1 2 3 4 5 6 7 8 9 10 11 12 13 14 15 16 17 18 19 20 21 22 23 24 25 26 27 28 29 30 31 32 33 34 35 36 37 38 39 40 41 42 43 44 45 46 47 48 49 50
000
ASUS43 KMKX 010520
RWRWI

WISCONSIN REGIONAL WEATHER ROUNDUP
NATIONAL WEATHER SERVICE MILWAUKEE/SULLIVAN WI
1100 PM CST SAT JAN 31 2015

NOTE: "FAIR" INDICATES FEW OR NO CLOUDS BELOW 12,000 FEET WITH NO
SIGNIFICANT WEATHER AND/OR OBSTRUCTIONS TO VISIBILITY.

WIZ001-002-006>008-014>016-023>028-010600-
NORTHWEST WISCONSIN

CITY           SKY/WX    TMP DP  RH WIND       PRES   REMARKS
SUPERIOR ARPT  CLOUDY    10  -1  60 NE9       30.39R WCI  -3
ASHLAND        CLOUDY    16   7  67 E12       30.34R WCI   3
HAYWARD        CLOUDY    12   5  73 NE7       30.27R WCI   1
SIREN          CLOUDY    15   5  63 NE8       30.29R WCI   4
CUMBERLAND     CLOUDY    16   7  67 NE14      30.24R WCI   1
RICE LAKE      CLOUDY    17   8  69 NE9       30.26R WCI   5
CHETEK         CLOUDY    16   8  70 N7        30.24S WCI   7
LADYSMITH      CLOUDY    16   7  68 NE13      30.26R WCI   2
EAU CLAIRE     CLOUDY    19   9  65 NE10      30.22R WCI   7
MENOMONIE      CLOUDY    20  10  65 NE12      30.23R WCI   8
NEW RICHMOND   CLOUDY    18   9  66 NE13      30.23R WCI   5
OSCEOLA        CLOUDY    20   9  62 NE12      30.27S WCI   7
$$

WIZ003>005-009-010-017-018-010600-
NORTH CENTRAL WISCONSIN

CITY           SKY/WX    TMP DP  RH WIND       PRES   REMARKS
MANITOWISH WTR CLOUDY     8   2  78 NE6       30.25R WCI  -3
ARBOR VITAE    MOCLDY    11   3  70 NE5       30.24R WCI   3
WOODRUFF       MOCLDY    11   3  70 NE5       30.24R WCI   3
RHINELANDER    CLOUDY    10   2  69 NE8       30.23R WCI  -2
EAGLE RIVER    CLOUDY     9   1  70 NE10      30.24R WCI  -6
LAND O LAKES   MOCLDY     6   1  80 NE5       30.26R WCI  -3
PHILLIPS       CLOUDY    10   3  71 NE12      30.23R WCI  -4
TOMAHAWK       CLOUDY    13   6  73 NE5       30.23R WCI   5
MEDFORD        CLOUDY    15   7  70 NE14      30.20R WCI   0
MERRILL        CLOUDY    15   7  69 E9G16     30.23R WCI   3
$$

WIZ029-030-035-036-043>047-010600-
CENTRAL WISCONSIN

CITY           SKY/WX    TMP DP  RH WIND       PRES   REMARKS
WAUSAU         CLOUDY    17   9  70 NE10G17   30.20R WCI   5
MOSINEE        CLOUDY    19  12  73 NE14      30.21R WCI   6
MARSHFIELD     CLOUDY    20  11  68 NE14      30.19R WCI   7
STEVENS POINT  CLOUDY    22  14  72 E12       30.20R WCI  10
WAUPACA        CLOUDY    22  14  72 E8        30.24R WCI  13
WAUTOMA        CLOUDY    25  19  77 NE14      30.22R WCI  13
WISC RAPIDS    CLOUDY    25  16  68 E10       30.21R WCI  15
CAMP DOUGLAS   MIX PCPN  27  25  93 E10       30.18R WCI  17
$$

WIZ011>013-019>022-031-037>040-048>050-010600-
NORTHEAST WISCONSIN

CITY           SKY/WX    TMP DP  RH WIND       PRES   REMARKS
ANTIGO         CLOUDY    13   6  74 NE14      30.21R WCI  -3
SHAWANO        CLOUDY    19  10  68 E14       30.28R WCI   6
OCONTO         CLOUDY    15   5  65 MISG      30.30R
STURGEON BAY   CLOUDY    14   3  62 N15       30.30R WCI  -1
GREEN BAY      FLURRIES  17  11  77 NE26G32   30.28R WCI  -2
MANITOWOC      MIX PCPN  23  17  78 NE15G21   30.25R WCI  10
APPLETON       CLOUDY    19  12  73 NE15G24   30.24R WCI   5
CLINTONVILLE   CLOUDY    19  10  68 E17       30.26R WCI   4
OSHKOSH        CLOUDY    22  15  75 NE15G23   30.22R WCI   9
$$

WIZ032>034-041-042-053>061-010600-
SOUTHWEST WISCONSIN

CITY           SKY/WX    TMP DP  RH WIND       PRES   REMARKS
LA CROSSE      LGT SNOW  28  23  81 E6        30.17S WCI  22
SPARTA         CLOUDY    27  20  74 E9        30.18S WCI  18
VIROQUA        CLOUDY    25  25 100 E12       30.11F VSB 1   WCI  14
BOSCOBEL       LGT SNOW  29  25  85 NE6       30.14S VSB 1   WCI  23
PRAIRIE DU CHI LGT SNOW  29  26  88 E10       30.11F WCI  20
PLATTEVILLE    CLOUDY    30  28  94 NE14      30.10S WCI  19
$$

WIZ056-057-062-063-064-067-068-010600-
SOUTH CENTRAL WISCONSIN

CITY           SKY/WX    TMP DP  RH WIND       PRES   REMARKS
REEDSBURG      LGT SNOW  25  23  93 NE6       30.17R WCI  18
BARABOO/DELLS  LGT SNOW  25  22  91 E10       30.17R VSB 3/4 WCI  14
LONE ROCK      LGT SNOW  27  24  89 E10       30.16R VSB 1   WCI  17
MINERAL POINT  LGT SNOW  30  28  93 E12       30.10R VSB 1   WCI  21
MADISON        LGT SNOW  26  24  92 E10       30.17R VSB 3/4 WCI  16
MIDDLETON      CLOUDY    28  26  94 E10       30.16S VSB 1   WCI  18
WATERTOWN      LGT SNOW  26  25  99 NE8       30.17S WCI  17
MONROE         LGT SNOW  30  28  93 NE8       30.11S WCI  23
JANESVILLE     LGT SNOW  32  30  93 E8        30.14F WCI  25
$$

WIZ051-052-058>065-066-070>072-010600-
SOUTHEAST WISCONSIN

CITY           SKY/WX    TMP DP  RH WIND       PRES   REMARKS
MILWAUKEE      LGT SNOW  30  26  85 NE12      30.18S FOG     WCI  20
WAUKESHA       LGT SNOW  27  27 100 NE9       30.18S WCI  17
MILWAUKEE/TIMM LGT SNOW  28  27  93 NE7       30.19S WCI  21
RACINE         LGT SNOW  30  27  88 NE10      30.19R VSB 3/4 WCI  21
BURLINGTON     LGT SNOW  27  27  97 E5        30.16S WCI  22
KENOSHA        LGT SNOW  30  29  96 NE8       30.17R VSB 1   WCI  22
FOND DU LAC    CLOUDY    24  17  74 NE15G23   30.22R WCI  11
SHEBOYGAN      CLOUDY    25  19  78 NE21G29   30.22R WCI  11
WEST BEND      FLURRIES  28  21  74 NE9       30.19R WCI  20
JUNEAU         LGT SNOW  25  23  90 NE8       30.19S VSB 3/4 WCI  16
$$

LSZ147-162-010600-
LAKE SUPERIOR

STATION/POSITION TIME  TEMP    WIND        PRES    WAVE
                       AIR SEA DIR/SP/G            HT/PER
                 (UTC) (F)     (DEG/KT/KT) (MB)    (FT/S)
DEVILS ISLAND    0500   13      50/ 23/ 28 1030.2R
PORT WING        0400   17      60/ 13/ 17 1027.8
SAXON HARBOR     0400   16      80/  4/ 10 1027.1R
$$

LMZ867-665-643>646-010600-
LAKE MICHIGAN

STATION/POSITION TIME  TEMP    WIND        PRES    WAVE
                       AIR SEA DIR/SP/G            HT/PER
                 (UTC) (F)     (DEG/KT/KT) (MB)    (FT/S)
NORTHPORT PIER   0426   15     360/ 18/ 23 1026.4S
SISTER BAY       0428   14      10/ 14/ 18   N/A
KEWAUNEE LAKESHO 0500   20      20/ 12/ 22 1024.0R
SHEBOYGAN LAKESH 0500   27      40/ 26/ 28 1024.4R
PORT WASHINGTON  0400   31      40/ 15/ 20 1022.7F
MILWAUKEE LAKESH 0500   30      70/ 17/ 19   N/A
KENOSHA   LAKESH 0500   31      60/ 11/ 12 1021.7S
$$

TC  - TEMPERATURE IN CELSIUS
VSB - VISIBILITY IN STATUTE MILES
WCI - WIND CHILL INDEX
HX  - HEAT INDEX




USA.gov is the U.S. government's official web portal to all federal, state and local government web resources and services.